Weather History for Sigonella, Italy

Change the Weather History Date:

Sunday, February 17, 2013

  Actual Average Record
Temperature  
Mean Temperature 48 °F -  
Max Temperature 60 °F 63 °F 78 °F (2014)
Min Temperature 37 °F 43 °F 32 °F (2008)
Degree Days  
Heating Degree Days 16    
Moisture  
Dew Point 41 °F    
Average Humidity 77    
Maximum Humidity 100    
Minimum Humidity 23    
Precipitation  
Precipitation 0.00 in 0.05 in - ()
Sea Level Pressure  
Sea Level Pressure 30.02 in    
Wind  
Wind Speed 5 mph ()    
Max Wind Speed 13 mph    
Max Gust Speed -    
Visibility 6.2 miles    
Events      
Averages and records for this station are not official NWS values.
T = Trace of Precipitation, MM = Missing Value Source: Averaged Metar Reports

Daily Weather History Graph

Daily Weather History Graph

Search for Another Location

Airport:

Trip Planner

Search our weather history database for the weather conditions in past years. The results will help you decide how hot, cold, wet, or windy it might be!

Date:

Astronomy

Feb. 17, 2013 Rise Set
Actual Time 6:47 AM CET 5:42 PM CET
Civil Twilight 6:20 AM CET 6:08 PM CET
Nautical Twilight 5:50 AM CET 6:39 PM CET
Astronomical Twilight 5:19 AM CET 7:09 PM CET
Moon 10:37 AM CET (2/17) 12:12 AM CET (2/17)
Length of Visible Light 11h 48m
Length of Day
10h 54m
Waxing Crescent, 46% of the Moon is Illuminated
Feb 17
Waxing Crescent
Feb 17
First Quarter
Feb 25
Full
Mar 4
Last Quarter
Mar 11
New

Hourly Weather History & Observations

Time (CET) Temp. Windchill Dew Point Humidity Pressure Visibility Wind Dir Wind Speed Gust Speed Precip Events Conditions
12:55 AM 48.2 °F - 44.6 °F 87% 30.04 in 6.2 mi NW 8.1 mph - N/A   Scattered Clouds
1:00 AM 47 °F - 44 °F 85% 30.05 in 6 mi NW 8.1 mph - -   Scattered Clouds
1:55 AM 44.6 °F 40.2 °F 44.6 °F 100% 30.04 in 6.2 mi WNW 8.1 mph - N/A   Scattered Clouds
2:55 AM 42.8 °F 40.1 °F 42.8 °F 100% 30.04 in 6.2 mi WNW 4.6 mph - N/A   Partly Cloudy
3:55 AM 41.0 °F 39.0 °F 41.0 °F 100% 30.04 in 6.2 mi NW 3.5 mph - N/A   Partly Cloudy
4:00 AM 41 °F - 41 °F 100% 30.04 in 6 mi NW 3.5 mph - -   Scattered Clouds
4:55 AM 39.2 °F - 39.2 °F 100% 30.01 in 6.2 mi East 2.3 mph - N/A   Partly Cloudy
5:55 AM 39.2 °F 35.9 °F 39.2 °F 100% 30.01 in 6.2 mi WNW 4.6 mph - N/A   Partly Cloudy
6:55 AM 37.4 °F 34.9 °F 37.4 °F 100% 30.01 in 6.2 mi West 3.5 mph - N/A   Partly Cloudy
7:00 AM 37 °F - 37 °F 100% 30.03 in 6 mi West 3.5 mph - -   Scattered Clouds
7:55 AM 39.2 °F - 39.2 °F 100% 30.04 in 6.2 mi West 2.3 mph - N/A   Partly Cloudy
8:55 AM 44.6 °F 41.4 °F 41.0 °F 87% 30.04 in 6.2 mi North 5.8 mph - N/A   Partly Cloudy
9:55 AM 53.6 °F - 42.8 °F 67% 30.04 in 6.2 mi SW 3.5 mph - N/A   Partly Cloudy
10:00 AM 53 °F - 43 °F 58% 30.05 in 6 mi SW 3.5 mph - -   Scattered Clouds
10:55 AM 57.2 °F - 41.0 °F 55% 30.04 in 6.2 mi Calm Calm - N/A   Partly Cloudy
11:55 AM 59.0 °F - 33.8 °F 39% 30.04 in 6.2 mi WSW 3.5 mph - N/A   Partly Cloudy
12:55 PM 60.8 °F - 32.0 °F 34% 30.01 in 6.2 mi ENE 3.5 mph - N/A   Scattered Clouds
1:00 PM 60 °F - 32 °F 23% 30.01 in 6 mi ENE 3.5 mph - -   Mostly Cloudy
1:55 PM 59.0 °F - 30.2 °F 34% 29.98 in 6.2 mi NE 3.5 mph - N/A   Scattered Clouds
2:55 PM 57.2 °F - 41.0 °F 55% 29.98 in 6.2 mi ESE 10.4 mph - N/A   Mostly Cloudy
3:55 PM 55.4 °F - 37.4 °F 51% 29.98 in 6.2 mi East 12.7 mph - N/A   Mostly Cloudy
4:00 PM 56 °F - 38 °F 39% 29.99 in 6 mi East 12.7 mph - -   Mostly Cloudy
4:55 PM 55.4 °F - 42.8 °F 63% 29.98 in 6.2 mi East 10.4 mph - N/A   Mostly Cloudy
5:55 PM 51.8 °F - 42.8 °F 71% 29.98 in 6.2 mi East 10.4 mph - N/A   Mostly Cloudy
6:55 PM 51.8 °F - 44.6 °F 76% 29.98 in 6.2 mi East 6.9 mph - N/A   Mostly Cloudy
7:00 PM 52 °F - 44 °F 65% 30.01 in 6 mi East 6.9 mph - -   Mostly Cloudy
7:55 PM 50.0 °F - 46.4 °F 87% 29.98 in 6.2 mi Calm Calm - N/A   Scattered Clouds
8:55 PM 48.2 °F - 46.4 °F 93% 30.01 in 6.2 mi WNW 5.8 mph - N/A   Scattered Clouds
9:55 PM 42.8 °F - 42.8 °F 100% 30.01 in 6.2 mi West 2.3 mph - N/A   Scattered Clouds
10:00 PM 44 °F - 44 °F 97% 30.04 in 6 mi West 2.3 mph - -   Partly Cloudy
10:55 PM 41.0 °F 39.0 °F 41.0 °F 100% 30.04 in 6.2 mi West 3.5 mph - N/A   Scattered Clouds
11:55 PM 41.0 °F 39.0 °F 41.0 °F 100% 30.01 in 6.2 mi West 3.5 mph - N/A   Scattered Clouds